Tracking 20942 objects as of 14-Jul-2020
HD Live streaming from Space Station
objects crossing your sky now

DELTA 1 DEB

Track DELTA 1 DEB now!
10-day predictions


NORAD ID: 12265
Int'l Code: 1978-026DJ
Perigee: 738.9 km
Apogee: 947.0 km
Inclination: 98.7 °
Period: 101.6 minutes
Semi major axis: 7213 km
RCS: 0.051 m2 (small)
Launch date: March 5, 1978
Source: United States (US)
Launch site: AIR FORCE WESTERN TEST RANGE (AFWTR)

Note: This is SATELLITE DEBRIS
aabbcc
Your satellite tracking list
Your tracking list is empty




NASA's NSSDC Master Catalog

Two Line Element Set (TLE):
1 12265U 78026DJ  20196.37676302  .00000307  00000-0  15788-3 0  9993
2 12265  98.7035 347.6354 0144179 233.9241 154.1676 14.16912200  5553
Source of the keplerian elements: AFSPC